BEAR Weather Reports


Display with metric or nautical units.
time (UTC)temp
F
wind
direction
speed
MPH
gust
MPH
rain 1hr
in
rain 24hr
in
rain mn
in
humidity
%
barometer
mb
20260510110053 47 154 2.0 8.0 0.00 0.00 0.00 96 1010.8
20260510104609 47 225 3.0 8.0 0.00 0.00 0.00 96 1011.0
20260510103049 47 152 3.0 7.0 0.00 0.00 0.00 96 1010.8
20260510101546 46 219 2.0 11.0 0.00 0.00 0.00 96 1010.4
20260510100045 47 189 4.0 9.0 0.00 0.00 0.00 96 1010.5
20260510094524 47 177 2.0 6.0 0.00 0.00 0.00 95 1010.5
20260510093013 47 138 2.0 5.0 0.00 0.00 0.00 95 1010.1
20260510091519 47 121 3.0 11.0 0.00 0.00 0.00 96 1010.0
20260510090009 47 198 1.0 6.0 0.00 0.00 0.00 95 1009.6
20260510084510 47 142 1.0 8.0 0.00 0.00 0.00 96 1009.8
20260510083007 47 192 2.0 10.0 0.00 0.00 0.00 96 1009.4
20260510081503 47 148 2.0 5.0 0.00 0.00 0.00 96 1009.7
20260510080005 47 191 0.0 5.0 0.00 0.00 0.00 96 1010.3
20260510074604 47 209 0.0 7.0 0.00 0.00 0.00 95 1010.4
20260510073059 47 331 1.0 4.0 0.00 0.00 0.00 94 1010.5
20260510071556 48 247 2.0 10.0 0.00 0.00 0.00 93 1010.4
20260510070057 48 142 2.0 10.0 0.00 0.00 0.00 91 1010.4
20260510064551 49 258 2.0 9.0 0.00 0.00 0.00 87 1010.5
20260510063054 49 132 1.0 8.0 0.00 0.00 0.00 86 1010.3
20260510061528 49 213 3.0 10.0 0.00 0.00 0.00 86 1010.1
20260510060039 49 136 5.0 16.0 0.00 0.00 0.00 86 1010.0
20260510054513 49 220 3.0 8.0 0.00 0.00 0.00 86 1010.3
20260510053011 49 223 0.0 8.0 0.00 0.00 0.00 86 1010.5
20260510051509 49 192 1.0 9.0 0.00 0.00 0.00 85 1010.5
20260510050007 49 215 3.0 9.0 0.00 0.00 0.00 85 1010.5
20260510044504 49 159 3.0 8.0 0.00 0.00 0.00 85 1010.3
20260510043005 49 187 3.0 9.0 0.00 0.00 0.00 84 1010.4
20260510041506 49 281 4.0 14.0 0.00 0.00 0.00 84 1010.0
20260510040101 49 171 3.0 10.0 0.00 0.00 0.00 84 1009.7
20260510034558 49 167 5.0 10.0 0.00 0.00 0.00 85 1010.1
20260510033057 49 196 2.0 7.0 0.00 0.00 0.00 85 1010.3
20260510031626 49 227 2.0 6.0 0.00 0.00 0.00 85 1010.4
20260510030055 49 172 4.0 10.0 0.00 0.00 0.00 85 1010.3
20260510024530 49 185 3.0 11.0 0.00 0.00 0.00 86 1010.4
20260510023041 49 151 1.0 14.0 0.00 0.00 0.00 86 1010.5
20260510021553 49 211 4.0 10.0 0.00 0.00 0.00 86 1010.5
20260510020053 49 159 1.0 13.0 0.00 0.00 0.00 87 1010.7
20260510014550 49 184 2.0 11.0 0.00 0.00 0.00 87 1010.6
20260510013049 49 163 3.0 11.0 0.00 0.00 0.00 87 1010.8
20260510011606 49 100 4.0 8.0 0.00 0.00 0.00 86 1010.8
20260510004518 48 205 3.0 11.0 0.00 0.00 0.00 86 1010.9
20260510003018 48 200 1.0 6.0 0.00 0.00 0.00 85 1010.9
20260510001516 48 131 1.0 7.0 0.00 0.00 0.00 85 1010.8
20260510000014 48 221 1.0 7.0 0.00 0.00 0.00 85 1010.7
20260509234514 48 175 2.0 8.0 0.00 0.00 0.00 85 1010.6
20260509233013 48 128 3.0 6.0 0.00 0.00 0.00 84 1010.5
20260509231512 48 146 2.0 17.0 0.00 0.00 0.00 86 1010.5
20260509230010 47 168 4.0 14.0 0.00 0.00 0.00 86 1010.7
20260509224509 46 191 3.0 9.0 0.00 0.00 0.00 89 1010.7
20260509223007 46 151 0.0 3.0 0.00 0.00 0.00 90 1010.9
20260509221507 46 150 2.0 6.0 0.00 0.00 0.00 90 1011.0
20260509220004 46 182 1.0 3.0 0.00 0.00 0.00 90 1011.1
20260509214502 46 213 2.0 6.0 0.00 0.00 0.00 89 1011.1
20260509213117 47 193 4.0 10.0 0.00 0.00 0.00 86 1011.2
20260509211615 47 159 3.0 8.0 0.00 0.00 0.00 84 1011.4
20260509210101 47 184 2.0 10.0 0.00 0.00 0.00 84 1011.2
20260509204603 46 165 4.0 11.0 0.00 0.00 0.00 85 1011.4
20260509203100 47 172 2.0 12.0 0.00 0.00 0.00 84 1011.4
20260509201556 46 164 4.0 12.0 0.00 0.00 0.00 86 1011.4
20260509200026 45 157 4.0 13.0 0.00 0.00 0.00 87 1011.4
20260509194621 45 148 4.0 13.0 0.00 0.00 0.00 87 1011.5
20260509193018 46 66 3.0 10.0 0.00 0.00 0.00 85 1011.8
20260509191519 46 150 2.0 7.0 0.00 0.00 0.00 83 1011.7
20260509190021 47 180 2.0 6.0 0.00 0.00 0.00 82 1011.9
20260509184513 47 170 1.0 10.0 0.00 0.00 0.00 81 1012.0
20260509183014 47 182 2.0 7.0 0.00 0.00 0.00 79 1012.2
20260509181508 47 224 2.0 7.0 0.00 0.00 0.00 77 1012.3
20260509180007 47 192 3.0 7.0 0.00 0.00 0.00 76 1012.4
20260509174508 47 220 1.0 5.0 0.00 0.00 0.00 79 1012.5
20260509173002 46 158 0.0 8.0 0.00 0.00 0.00 79 1012.8
20260509171501 47 189 2.0 6.0 0.00 0.00 0.00 74 1012.8
20260509170100 48 146 1.0 7.0 0.00 0.00 0.00 71 1012.8
20260509164600 48 145 3.0 5.0 0.00 0.00 0.00 64 1013.0
20260509163036 50 157 3.0 8.0 0.00 0.00 0.00 55 1012.9
20260509161526 50 360 2.0 6.0 0.00 0.00 0.00 53 1013.0
20260509160021 51 360 1.0 5.0 0.00 0.00 0.00 47 1013.2
20260509154519 51 360 1.0 6.0 0.00 0.00 0.00 46 1013.3
20260509153021 52 360 2.0 10.0 0.00 0.00 0.00 44 1013.4
20260509151517 51 360 3.0 9.0 0.00 0.00 0.00 43 1013.6
20260509150014 52 360 1.0 10.0 0.00 0.00 0.00 42 1013.7
20260509144513 52 360 2.0 5.0 0.00 0.00 0.00 42 1013.7
20260509143012 53 360 3.0 8.0 0.00 0.00 0.00 37 1013.7
20260509141510 52 252 2.0 8.0 0.00 0.00 0.00 38 1013.8
20260509140005 51 249 2.0 9.0 0.00 0.00 0.00 42 1013.7
20260509134502 50 303 2.0 5.0 0.00 0.00 0.00 44 1013.9
20260509133106 50 193 1.0 6.0 0.00 0.00 0.00 43 1014.0
20260509131559 49 193 2.0 5.0 0.00 0.00 0.00 43 1014.1
20260509130053 48 222 3.0 10.0 0.00 0.00 0.00 46 1014.3
20260509124602 47 260 1.0 8.0 0.00 0.00 0.00 49 1014.4
20260509123049 46 187 1.0 4.0 0.00 0.00 0.00 47 1014.6
20260509121545 45 203 1.0 6.0 0.00 0.00 0.00 49 1014.6
20260509120041 44 130 0.0 8.0 0.00 0.00 0.00 53 1014.5
20260509114545 42 167 1.0 5.0 0.00 0.00 0.00 54 1014.6
20260509113034 40 140 1.0 4.0 0.00 0.00 0.00 64 1014.6
20260509111532 38 135 2.0 6.0 0.00 0.00 0.00 67 1014.6